Regional Weather Roundup
Issued by NWS

Home | Current Version | Previous Version | Text Only | Print | Product List | Glossary On
Versions: 1 2 3 4 5 6 7 8 9 10 11 12 13 14 15 16 17 18 19 20 21 22 23 24 25 26 27 28 29 30 31 32 33 34 35 36 37 38 39 40 41 42 43 44 45 46 47 48 49 50
000
ASUS43 KLMK 170610
RWRKY
KENTUCKY REGIONAL WEATHER ROUNDUP
NATIONAL WEATHER SERVICE LOUISVILLE KY
200 AM EDT THU APR 17 2014

NOTE "FAIR" INDICATES FEW OR NO CLOUDS BELOW 12,000 FEET
WITH NO SIGNIFICANT WEATHER AND/OR OBSTRUCTIONS TO VISIBILITY.

KYZ001>023-026-027-061>063-070>075-170700-
WESTERN AND SOUTH CENTRAL KENTUCKY

CITY           SKY/WX    TMP DP  RH WIND       PRES   REMARKS
PADUCAH        FAIR      49  30  48 SE5       30.17R
HENDERSON      FAIR      45  28  53 SE3       30.19S
OWENSBORO      FAIR      44  29  56 SE7       30.21S
HOPKINSVILLE   FAIR      48  28  46 SE6       30.20F
BOWLING GREEN  FAIR      39  33  79 CALM      30.24R
GLASGOW        FAIR      39  32  77 CALM      30.24R
$$

KYZ024-025-028>034-038-045-046-053-170700-
NORTH CENTRAL KENTUCKY

CITY           SKY/WX    TMP DP  RH WIND       PRES   REMARKS
LOUISVILLE/SDF MOCLDY    45  25  45 CALM      30.24S
LOUISVILLE/LOU FAIR      47  25  42 CALM      30.25S
FORT KNOX      FAIR      42  26  55 NE2       30.22S
$$

KYZ035>037-039>044-047>052-055>060-089>105-170700-
NORTHEAST KENTUCKY

CITY           SKY/WX    TMP DP  RH WIND       PRES   REMARKS
LEXINGTON      FAIR      43  22  43 SE8       30.26S
COVINGTON      MOCLDY    40  23  50 SE7       30.26S
FRANKFORT      FAIR      40  24  53 E6        30.25S
$$

KYZ054-064>069-076>088-106>120-170700-
SOUTHEAST KENTUCKY

CITY           SKY/WX    TMP DP  RH WIND       PRES   REMARKS
JACKSON        FAIR      44  19  36 SE3       30.28R
LONDON         FAIR      38  30  73 CALM      30.28R
SOMERSET       FAIR      39  28  65 CALM      30.29R
MIDDLESBORO    FAIR      35  31  86 CALM      30.32R
MONTICELLO     FAIR      36  29  76 CALM      30.30R
$$




USA.gov is the U.S. government's official web portal to all federal, state and local government web resources and services.